sat.trackr.live / text

‹ back to catalog

STARLINK-2512

NORAD 48319 · 2021-036AV

PAYLOAD ACTIVE UNKNOWN

§ Identity

Operator
Country
US
Launch date
2021-04-29
Launch site
AFETR
Launch vehicle
Mass (kg)
RCS (m²)

Purposes: comms

External: N2YO · Heavens-Above · Gunter

§ Orbital elements

Epoch: 2026-05-25T04:16:02.180064Z

Period
94.01 min
Inclination
53.1592°
Eccentricity
0.0001353
Mean motion
15.31701353 rev/d
Perigee alt
469.8 km
Apogee alt
471.7 km
Semi-major
6,848.9 km
B*
2.1206e-5
RAAN
105.3903°
Arg perigee
97.6867°
Mean anomaly
262.4288°
Rev number
27,975

§ Raw data

STARLINK-25121 48319U 21036AV  26145.17780301  .00000293  00000+0  21206-4 0  99902 48319  53.1592 105.3903 0001353  97.6867 262.4288 15.31701353279759

JSON: /api/v1/satellites/48319 · /tle

For live sub-satellite position, see the globe view (requires WebGL).

§ Visibility from observer

Set your observer location to see the next 7 days of passes ≥ 10°. The values pass through the URL so the page stays shareable.

No JS? Fill the form by hand. The geolocation button needs JavaScript.